When you browse on this site, cookies collect data to enhance your experience and personalize the content and advertising you see.
Visit our Privacy Policy to learn more. By continuing to use the site, you agree to this use of cookies and data.
  • In Schweiz
  • Länderverzeichnis
  • Für 7 Tage
  • Wassertemperatur
  • Satellitenkarten
  • Wetterkarte
  • Widgets
  • user-avatar
    Anmelden

    Stündliche Wetter Salta

    Heute, 22 Mai, Mittwoch

    Zeit Temperatur Niederschläge Wind Luftdruck Luftfeuchtigkeit
    00:00 +9°C° 0.1 mm 1 m/S 651 mmHg 82%
    01:00 +9°C° 0.1 mm 1 m/S 651 mmHg 81%
    02:00 +9°C° 0.1 mm 1 m/S 651 mmHg 80%
    03:00 +9°C° 0 mm 1 m/S 651 mmHg 80%
    04:00 +7°C° 0 mm 2 m/S 651 mmHg 80%
    05:00 +7°C° 0 mm 2 m/S 650 mmHg 80%
    06:00 +8°C° 0 mm 2 m/S 651 mmHg 78%
    07:00 +8°C° 0 mm 2 m/S 651 mmHg 76%
    08:00 +8°C° 0 mm 2 m/S 651 mmHg 75%
    09:00 +9°C° 0 mm 3 m/S 652 mmHg 74%
    10:00 +10°C° 0 mm 3 m/S 652 mmHg 73%
    11:00 +10°C° 0 mm 3 m/S 652 mmHg 72%
    12:00 +10°C° 0 mm 3 m/S 651 mmHg 71%
    13:00 +10°C° 0 mm 3 m/S 651 mmHg 71%
    14:00 +10°C° 0 mm 3 m/S 650 mmHg 71%
    15:00 +10°C° 0 mm 3 m/S 650 mmHg 74%
    16:00 +9°C° 0 mm 3 m/S 650 mmHg 77%
    17:00 +8°C° 0 mm 3 m/S 650 mmHg 80%
    18:00 +7°C° 0.1 mm 2 m/S 651 mmHg 83%
    19:00 +7°C° 0.1 mm 2 m/S 651 mmHg 86%
    20:00 +7°C° 0.1 mm 1 m/S 651 mmHg 89%
    21:00 +7°C° 0 mm 1 m/S 652 mmHg 89%
    22:00 +6°C° 0 mm 1 m/S 652 mmHg 89%
    23:00 +6°C° 0 mm 1 m/S 652 mmHg 89%

    Morgen, 23 Mai, Donnerstag

    Zeit Temperatur Niederschläge Wind Luftdruck Luftfeuchtigkeit
    00:00 +6°C° 0 mm 1 m/S 652 mmHg 88%
    01:00 +6°C° 0 mm 1 m/S 652 mmHg 86%
    02:00 +4°C° 0 mm 0 m/S 652 mmHg 85%
    03:00 +4°C° 0 mm 0 m/S 651 mmHg 84%
    04:00 +4°C° 0 mm 0 m/S 651 mmHg 82%
    05:00 +4°C° 0 mm 0 m/S 651 mmHg 80%
    06:00 +6°C° 0 mm 1 m/S 652 mmHg 75%
    07:00 +7°C° 0 mm 1 m/S 653 mmHg 71%
    08:00 +8°C° 0 mm 1 m/S 653 mmHg 66%
    09:00 +10°C° 0 mm 1 m/S 654 mmHg 59%
    10:00 +13°C° 0 mm 1 m/S 655 mmHg 51%
    11:00 +15°C° 0 mm 2 m/S 656 mmHg 44%
    12:00 +16°C° 0 mm 2 m/S 655 mmHg 41%
    13:00 +17°C° 0 mm 2 m/S 655 mmHg 38%
    14:00 +18°C° 0 mm 3 m/S 654 mmHg 35%
    15:00 +17°C° 0 mm 2 m/S 654 mmHg 39%
    16:00 +16°C° 0 mm 2 m/S 653 mmHg 43%
    17:00 +15°C° 0 mm 2 m/S 653 mmHg 46%
    18:00 +13°C° 0 mm 1 m/S 653 mmHg 52%
    19:00 +11°C° 0 mm 1 m/S 653 mmHg 57%
    20:00 +9°C° 0 mm 1 m/S 652 mmHg 62%
    21:00 +9°C° 0 mm 1 m/S 652 mmHg 61%
    22:00 +8°C° 0 mm 1 m/S 652 mmHg 60%
    23:00 +8°C° 0 mm 1 m/S 653 mmHg 59%

    übermorgen, 24 Mai, Freitag

    Zeit Temperatur Niederschläge Wind Luftdruck Luftfeuchtigkeit
    00:00 +8°C° 0 mm 1 m/S 652 mmHg 56%
    01:00 +8°C° 0 mm 1 m/S 652 mmHg 53%
    02:00 +8°C° 0 mm 1 m/S 651 mmHg 51%
    03:00 +8°C° 0 mm 1 m/S 651 mmHg 48%
    04:00 +8°C° 0 mm 1 m/S 651 mmHg 45%
    05:00 +8°C° 0 mm 1 m/S 651 mmHg 43%
    06:00 +9°C° 0 mm 1 m/S 651 mmHg 40%
    07:00 +10°C° 0 mm 1 m/S 652 mmHg 37%
    08:00 +11°C° 0 mm 1 m/S 652 mmHg 34%
    09:00 +14°C° 0 mm 1 m/S 653 mmHg 32%
    10:00 +17°C° 0 mm 2 m/S 653 mmHg 29%
    11:00 +20°C° 0 mm 2 m/S 654 mmHg 26%
    12:00 +20°C° 0 mm 2 m/S 653 mmHg 26%
    13:00 +21°C° 0 mm 3 m/S 652 mmHg 27%
    14:00 +21°C° 0 mm 3 m/S 652 mmHg 27%
    15:00 +20°C° 0 mm 2 m/S 651 mmHg 32%
    16:00 +19°C° 0 mm 2 m/S 650 mmHg 37%
    17:00 +17°C° 0 mm 2 m/S 649 mmHg 42%
    18:00 +15°C° 0 mm 1 m/S 649 mmHg 49%
    19:00 +13°C° 0 mm 1 m/S 649 mmHg 57%
    20:00 +11°C° 0 mm 1 m/S 649 mmHg 64%
    21:00 +11°C° 0 mm 1 m/S 649 mmHg 65%
    22:00 +11°C° 0 mm 1 m/S 649 mmHg 65%
    23:00 +11°C° 0 mm 1 m/S 649 mmHg 65%

    25 Mai, Samstag

    Zeit Temperatur Niederschläge Wind Luftdruck Luftfeuchtigkeit
    00:00 +11°C° 0 mm 1 m/S 649 mmHg 63%
    01:00 +11°C° 0 mm 1 m/S 649 mmHg 61%
    02:00 +11°C° 0 mm 1 m/S 648 mmHg 59%
    03:00 +11°C° 0 mm 1 m/S 648 mmHg 57%
    04:00 +11°C° 0 mm 1 m/S 648 mmHg 55%
    05:00 +11°C° 0 mm 1 m/S 648 mmHg 53%
    06:00 +11°C° 0 mm 1 m/S 648 mmHg 51%
    07:00 +12°C° 0 mm 1 m/S 649 mmHg 49%
    08:00 +13°C° 0 mm 1 m/S 649 mmHg 47%
    09:00 +16°C° 0 mm 1 m/S 650 mmHg 43%
    10:00 +18°C° 0 mm 2 m/S 650 mmHg 38%
    11:00 +21°C° 0 mm 2 m/S 650 mmHg 34%
    12:00 +23°C° 0 mm 2 m/S 650 mmHg 33%
    13:00 +24°C° 0 mm 2 m/S 649 mmHg 31%
    14:00 +25°C° 0 mm 3 m/S 649 mmHg 30%
    15:00 +24°C° 0 mm 2 m/S 648 mmHg 35%
    16:00 +23°C° 0 mm 2 m/S 648 mmHg 40%
    17:00 +20°C° 0 mm 2 m/S 647 mmHg 45%
    18:00 +18°C° 0 mm 2 m/S 647 mmHg 50%
    19:00 +16°C° 0 mm 2 m/S 647 mmHg 54%
    20:00 +14°C° 0 mm 1 m/S 647 mmHg 59%
    21:00 +14°C° 0 mm 1 m/S 648 mmHg 57%
    22:00 +14°C° 0 mm 1 m/S 648 mmHg 55%
    23:00 +14°C° 0 mm 1 m/S 648 mmHg 54%

    26 Mai, Sonntag

    Zeit Temperatur Niederschläge Wind Luftdruck Luftfeuchtigkeit
    00:00 +14°C° 0 mm 2 m/S 648 mmHg 52%
    01:00 +14°C° 0 mm 2 m/S 648 mmHg 50%
    02:00 +14°C° 0 mm 2 m/S 648 mmHg 48%
    03:00 +13°C° 0 mm 2 m/S 647 mmHg 46%
    04:00 +13°C° 0 mm 2 m/S 647 mmHg 44%
    05:00 +13°C° 0 mm 2 m/S 647 mmHg 42%
    06:00 +14°C° 0 mm 2 m/S 648 mmHg 39%
    07:00 +15°C° 0 mm 2 m/S 649 mmHg 36%
    08:00 +16°C° 0 mm 2 m/S 650 mmHg 33%
    09:00 +19°C° 0 mm 2 m/S 650 mmHg 30%
    10:00 +23°C° 0 mm 2 m/S 651 mmHg 27%
    11:00 +26°C° 0 mm 2 m/S 651 mmHg 24%
    12:00 +26°C° 0 mm 3 m/S 651 mmHg 24%
    13:00 +27°C° 0 mm 3 m/S 650 mmHg 24%
    14:00 +28°C° 0 mm 4 m/S 649 mmHg 24%
    15:00 +26°C° 0 mm 3 m/S 649 mmHg 31%
    16:00 +24°C° 0 mm 3 m/S 649 mmHg 38%
    17:00 +21°C° 0 mm 3 m/S 648 mmHg 45%
    18:00 +19°C° 0 mm 2 m/S 649 mmHg 55%
    19:00 +16°C° 0 mm 2 m/S 649 mmHg 65%
    20:00 +14°C° 0 mm 1 m/S 649 mmHg 75%
    21:00 +14°C° 0 mm 1 m/S 649 mmHg 73%
    22:00 +13°C° 0 mm 1 m/S 649 mmHg 71%
    23:00 +13°C° 0 mm 1 m/S 649 mmHg 70%

    27 Mai, Montag

    Zeit Temperatur Niederschläge Wind Luftdruck Luftfeuchtigkeit
    00:00 +13°C° 0 mm 1 m/S 649 mmHg 66%
    01:00 +13°C° 0 mm 1 m/S 649 mmHg 62%
    02:00 +13°C° 0 mm 1 m/S 649 mmHg 58%
    03:00 +13°C° 0 mm 1 m/S 649 mmHg 56%
    04:00 +13°C° 0 mm 1 m/S 649 mmHg 54%
    05:00 +13°C° 0 mm 1 m/S 649 mmHg 51%
    06:00 +13°C° 0 mm 1 m/S 649 mmHg 50%
    07:00 +14°C° 0 mm 1 m/S 650 mmHg 50%
    08:00 +15°C° 0 mm 1 m/S 651 mmHg 49%
    09:00 +17°C° 0 mm 2 m/S 651 mmHg 47%
    10:00 +19°C° 0 mm 2 m/S 651 mmHg 46%
    11:00 +21°C° 0 mm 3 m/S 652 mmHg 44%
    12:00 +22°C° 0 mm 3 m/S 651 mmHg 41%
    13:00 +24°C° 0 mm 3 m/S 651 mmHg 37%
    14:00 +25°C° 0 mm 4 m/S 650 mmHg 34%
    15:00 +22°C° 0 mm 3 m/S 650 mmHg 43%
    16:00 +20°C° 0 mm 3 m/S 650 mmHg 53%
    17:00 +18°C° 0 mm 3 m/S 650 mmHg 63%
    18:00 +17°C° 0 mm 2 m/S 650 mmHg 69%
    19:00 +15°C° 0 mm 2 m/S 651 mmHg 76%
    20:00 +14°C° 0 mm 1 m/S 651 mmHg 82%
    21:00 +13°C° 0 mm 1 m/S 651 mmHg 81%
    22:00 +13°C° 0 mm 1 m/S 652 mmHg 79%
    23:00 +13°C° 0 mm 1 m/S 652 mmHg 78%
    Mehr zeigen